Location: �perlecques
(50.8057°N, 2.1521°E)
Time: 07:40:59
(UTC+00:00)

STARLINK-1204 - Pass Details

Date: 09 April 2020
Orbit: 548 x 551 km, 53.0° (Epoch: 03 June)

Event Time Altitude Azimuth Distance (km) Brightness Sun altitude
Rises 20:07:24 0° 289° (WNW) 2,725 8.9 -13.8°
Reaches altitude 10° 20:09:55 10° 276° (W) 1,828 7.3 -14.2°
Maximum altitude 20:13:20 25° 221° (SW) 1,139 5.3 -14.6°
Enters shadow 20:15:52 14° 174° (S) 1,558 5.5 -15.0°
